#timestamp,LO_Frequency,Hit,StdDev 
1545530415.6,286047001.9,N
1545530435.5,286047001.7,N
1545530455.3,286047004.2,N
1545530475.2,286047002.3,N
1545530495.9,286047002.2,N
1545530515.7,286047004.1,N
1545530535.6,286047003.6,N
1545530555.4,286047003.8,N
1545530575.2,286047002.5,N
1545530595.1,286047001.6,N
1545530596.0,286047001.6,N
1545530615.8,286047004.3,N
1545530635.7,286047002.0,N
1545530655.5,286047004.0,N
1545530675.3,286047003.5,N
1545530695.2,286047001.7,N
1545530715.0,286047000.2,N
1545530715.9,286047000.2,N
1545530735.7,286047002.4,N
1545530755.6,286047000.2,N
1545530775.4,286047000.2,N
1545530795.3,286047000.9,N
1545530815.1,286046999.0,N
1545530816.0,286046999.0,N
1545530835.8,286046998.3,N
1545530855.7,286047000.8,N
1545530875.5,286047000.8,N
1545530895.3,286047002.4,N
1545530915.2,286047003.8,N
1545530935.0,286047003.7,N
1545530935.9,286047003.7,N
1545530955.8,286047003.8,N
1545530975.6,286047005.3,Y
1545530995.4,286047004.1,P
1545531015.3,286047003.4,P
1545531035.1,286047003.8,P
1545531055.9,286047002.6,Y
1545531075.7,286046999.2,P
1545531095.5,286046998.6,N
1545531115.4,286046998.8,N
1545531135.2,286046998.6,N
1545531155.0,286047000.9,N
1545531155.9,286047000.9,N
1545531175.8,286046998.6,N
1545531195.6,286046998.1,N
1545531215.4,286046999.4,N
1545531235.3,286046996.5,N
1545531255.1,286046999.2,N
1545531275.9,286046999.6,N
1545531295.7,286046998.3,N
1545531315.5,286046998.7,N
1545531335.4,286046998.8,N
1545531355.2,286047001.1,N
1545531375.0,286047000.4,N
1545531375.9,286047000.4,N
1545531395.8,286046999.0,N
1545531415.6,286046998.5,N
1545531435.5,286046998.3,N
1545531455.3,286046998.6,N
1545531475.1,286046998.7,N
1545531495.9,286046998.1,N
1545531515.7,286046999.3,N
1545531535.5,286046996.6,N
1545531555.4,286046999.2,N
1545531575.2,286046997.2,N
1545531595.1,286046997.1,N
1545531596.0,286046997.1,N
1545531615.8,286046999.3,N
1545531635.6,286046998.8,N
1545531655.5,286046998.3,N
1545531675.3,286046998.5,N
1545531695.1,286046998.5,N
1545531715.9,286046998.9,N
1545531735.7,286046999.4,N
1545531755.6,286046999.6,N
1545531775.4,286046997.3,N
1545531795.2,286046996.9,N
1545531815.1,286046996.7,Y
1545531816.0,286046996.7,P
1545531835.8,286046999.0,N
1545531855.6,286046999.5,N
1545531875.5,286046999.3,N
1545531925.3,286046999.3,E
1545531935.3,286046998.7,N
1545531955.1,286047000.7,P
1545531975.8,286046999.8,N
1545531995.7,286047002.0,N
1545532015.5,286047002.1,N
1545532035.4,286047001.4,N
1545532055.2,286047003.6,N
1545532075.0,286047003.9,N
1545532075.9,286047003.9,N
1545532095.8,286047001.6,N
1545532115.6,286047001.7,N
1545532135.4,286047002.5,N
1545532155.3,286047001.7,N
1545532175.1,286047002.5,N
1545532195.8,286047001.3,N
1545532215.7,286047002.2,N
1545532235.5,286047002.7,N
1545532255.4,286046999.9,N
1545532275.2,286047000.5,N
1545532295.0,286047000.0,N
1545532295.9,286047000.0,N
1545532315.8,286047001.2,N
1545532335.6,286046998.2,N
1545532355.5,286047002.5,N
1545532375.3,286047001.6,N
1545532395.1,286047003.5,N
1545532415.9,286047004.8,Y
1545532435.7,286047003.8,P
1545532455.5,286047001.8,N
1545532475.4,286047001.4,N
1545532495.2,286047000.1,N
1545532515.1,286047001.5,N
1545532516.0,286047001.5,N
1545532535.8,286047001.9,N
1545532555.6,286046999.7,N
1545532575.5,286046999.9,N
1545532625.3,286047000.6,E
1545532635.3,286047000.0,N
1545532655.1,286047011.9,P
1545532675.8,286047000.6,N
1545532695.7,286047000.0,N
1545532715.5,286047000.3,N
1545532735.4,286047000.5,N
1545532755.2,286046998.1,N
1545532775.0,286047001.0,N
1545532775.9,286047001.0,N
1545532795.8,286047001.0,N
1545532815.6,286047000.3,N
1545532835.4,286047001.1,N
1545532855.3,286046998.6,N
1545532875.1,286046998.7,N
1545532895.9,286046998.3,N
1545532915.7,286046998.6,N
1545532935.5,286046998.6,N
1545532955.4,286046998.4,N
1545532975.2,286046996.6,N
1545532995.1,286046998.8,N
1545532996.0,286046998.8,N
1545533015.8,286047000.0,N
1545533035.6,286046999.8,N
1545533055.5,286046998.1,N
1545533075.3,286047000.2,N
1545533095.1,286046999.9,N
1545533115.9,286047000.6,N
1545533135.7,286047000.6,N
1545533155.6,286047000.6,N
1545533175.4,286047001.0,N
1545533195.2,286047001.1,N
1545533215.1,286047000.8,N
1545533216.0,286047000.8,N
1545533235.8,286046998.4,N
1545533255.7,286047000.8,N
1545533275.5,286046998.2,N
1545533295.3,286046999.3,N
1545533315.2,286046998.9,N
1545533335.0,286046996.5,N
1545533335.9,286046996.5,N
1545533355.8,286046997.7,N
1545533375.6,286046996.7,N
1545533395.4,286046996.7,N
1545533415.3,286046998.0,N
1545533435.1,286046995.3,Y
1545533455.8,286046997.6,P
1545533475.7,286046995.5,P
1545533495.5,286046995.0,P
1545533515.4,286046996.4,N
1545533535.2,286046996.0,N
1545533555.0,286046995.8,Y
1545533555.9,286046995.8,P
1545533575.8,286047000.7,N
1545533595.6,286046999.3,N
1545533615.4,286046998.7,N
1545533635.3,286046998.9,N
1545533655.1,286047002.8,N
1545533675.9,286046999.7,N
1545533695.7,286047002.8,N
1545533715.5,286047002.3,N
1545533735.4,286047001.8,N
1545533755.2,286047004.0,N
1545533775.0,286047005.8,N
1545533775.9,286047005.8,N
1545533795.8,286047003.4,N
1545533815.6,286047001.5,N
1545533835.5,286047001.4,N
1545533855.3,286047004.3,N
1545533875.1,286047002.1,N
1545533895.9,286047001.5,N
1545533915.7,286047004.2,N
1545533935.5,286047003.7,N
1545533955.4,286047003.8,N
1545533975.2,286047001.9,N
1545533995.1,286047000.5,N
1545533996.0,286047000.5,N
